In Rescue
 
Open Full Screen Window  High Contrast Mode
Wind Gusting 00 knots
08
November 29, 2022 9:14 AM EST
Weather Information
Wind Direction
  150 °
Wind Speed
  08 kt (9 mph)
Wind Gust
  00 kt (0 mph)
Altimeter
29.89 in
Visibility
10 SM
Temperature
03° C
37° F
Dewpoint
00° C
32° F
Humidity
81%
Sky Condition
Clear
VFR

METAR KCVX 291414Z AUTO 15008KT 10SM CLR 03/00 A2989 RMK AO2 T00260000

FAA Disclaimer: The data displayed is for advisory purposes only and is not to be used for flight planning or operations.